| time (UTC) | temp F | wind direction | speed knots | gust knots | rain 1hr in | rain 24hr in | rain mn in | humidity % | barometer mb |
| 20260506015556 | 75 | 181 | 12.2 | 16.5 | 0.00 | 0.00 | 0.00 | 77 | 1006.9 |
| 20260506015059 | 75 | 165 | 8.7 | 16.5 | 0.00 | 0.00 | 0.00 | 77 | 1007.0 |
| 20260506014554 | 75 | 159 | 10.4 | 16.5 | 0.00 | 0.00 | 0.00 | 77 | 1007.1 |
| 20260506014056 | 75 | 195 | 9.6 | 16.5 | 0.00 | 0.00 | 0.00 | 77 | 1007.0 |
| 20260506013556 | 75 | 196 | 7.0 | 16.5 | 0.00 | 0.00 | 0.00 | 77 | 1006.8 |
| 20260506013109 | 75 | 166 | 11.3 | 16.5 | 0.00 | 0.00 | 0.00 | 77 | 1007.0 |
| 20260506012556 | 75 | 176 | 9.6 | 19.1 | 0.00 | 0.00 | 0.00 | 77 | 1006.8 |
| 20260506012059 | 75 | 188 | 13.0 | 19.1 | 0.00 | 0.00 | 0.00 | 77 | 1006.7 |
| 20260506011600 | 75 | 191 | 10.4 | 19.1 | 0.00 | 0.00 | 0.00 | 77 | 1006.5 |
| 20260506011056 | 75 | 169 | 10.4 | 22.6 | 0.00 | 0.00 | 0.00 | 77 | 1006.2 |
| 20260506010556 | 75 | 177 | 13.0 | 22.6 | 0.00 | 0.00 | 0.00 | 77 | 1006.1 |
| 20260506010117 | 75 | 198 | 14.8 | 21.7 | 0.00 | 0.00 | 0.00 | 77 | 1006.0 |
| 20260506005555 | 75 | 151 | 12.2 | 20.0 | 0.00 | 0.00 | 0.00 | 77 | 1006.0 |
| 20260506005057 | 75 | 184 | 9.6 | 16.5 | 0.00 | 0.00 | 0.00 | 77 | 1006.0 |
| 20260506004555 | 75 | 177 | 11.3 | 16.5 | 0.00 | 0.00 | 0.00 | 76 | 1006.1 |
| 20260506004055 | 75 | 191 | 10.4 | 16.5 | 0.00 | 0.00 | 0.00 | 76 | 1006.1 |
| 20260506003556 | 75 | 171 | 11.3 | 17.4 | 0.00 | 0.00 | 0.00 | 76 | 1006.2 |
| 20260506003114 | 75 | 167 | 10.4 | 17.4 | 0.00 | 0.00 | 0.00 | 76 | 1006.4 |
| 20260506002556 | 75 | 193 | 5.2 | 16.5 | 0.00 | 0.00 | 0.00 | 76 | 1006.4 |
| 20260506002056 | 75 | 162 | 8.7 | 16.5 | 0.00 | 0.00 | 0.00 | 76 | 1006.3 |
| 20260506001601 | 75 | 174 | 7.8 | 15.6 | 0.00 | 0.00 | 0.00 | 76 | 1006.1 |
| 20260506001056 | 75 | 204 | 9.6 | 16.5 | 0.00 | 0.00 | 0.00 | 77 | 1006.3 |
| 20260506000557 | 75 | 151 | 9.6 | 16.5 | 0.00 | 0.00 | 0.00 | 77 | 1006.2 |
| 20260506000056 | 75 | 171 | 11.3 | 16.5 | 0.00 | 0.00 | 0.00 | 77 | 1006.2 |
| 20260505235556 | 75 | 176 | 12.2 | 16.5 | 0.00 | 0.00 | 0.00 | 77 | 1006.1 |
| 20260505235057 | 75 | 159 | 9.6 | 15.6 | 0.00 | 0.00 | 0.00 | 77 | 1006.2 |
| 20260505234559 | 75 | 150 | 10.4 | 15.6 | 0.00 | 0.00 | 0.00 | 77 | 1006.1 |
| 20260505234100 | 75 | 156 | 10.4 | 15.6 | 0.00 | 0.00 | 0.00 | 76 | 1006.3 |
| 20260505233557 | 75 | 194 | 9.6 | 15.6 | 0.00 | 0.00 | 0.00 | 76 | 1006.4 |
| 20260505233106 | 75 | 166 | 9.6 | 17.4 | 0.00 | 0.00 | 0.00 | 76 | 1006.4 |
| 20260505232555 | 75 | 170 | 10.4 | 17.4 | 0.00 | 0.00 | 0.00 | 76 | 1006.5 |
| 20260505232055 | 75 | 176 | 9.6 | 17.4 | 0.00 | 0.00 | 0.00 | 76 | 1006.3 |
| 20260505231556 | 75 | 166 | 12.2 | 20.0 | 0.00 | 0.00 | 0.00 | 76 | 1006.2 |
| 20260505231055 | 75 | 148 | 12.2 | 20.0 | 0.00 | 0.00 | 0.00 | 76 | 1006.2 |
| 20260505230556 | 75 | 218 | 12.2 | 17.4 | 0.00 | 0.00 | 0.00 | 76 | 1006.6 |
| 20260505230057 | 74 | 165 | 12.2 | 16.5 | 0.00 | 0.00 | 0.00 | 76 | 1006.9 |
| 20260505225556 | 74 | 165 | 12.2 | 19.1 | 0.00 | 0.00 | 0.00 | 76 | 1006.9 |
| 20260505225056 | 74 | 176 | 10.4 | 19.1 | 0.00 | 0.00 | 0.00 | 77 | 1007.1 |
| 20260505224556 | 74 | 176 | 12.2 | 17.4 | 0.00 | 0.00 | 0.00 | 77 | 1007.0 |
| 20260505224056 | 74 | 182 | 11.3 | 17.4 | 0.00 | 0.00 | 0.00 | 77 | 1007.0 |
| 20260505223555 | 74 | 174 | 11.3 | 17.4 | 0.00 | 0.00 | 0.00 | 78 | 1007.1 |
| 20260505223058 | 74 | 175 | 10.4 | 16.5 | 0.00 | 0.00 | 0.00 | 79 | 1007.2 |
| 20260505222555 | 73 | 193 | 12.2 | 19.1 | 0.00 | 0.00 | 0.00 | 79 | 1007.2 |
| 20260505222055 | 73 | 191 | 11.3 | 19.1 | 0.00 | 0.00 | 0.00 | 79 | 1007.4 |
| 20260505221556 | 73 | 186 | 11.3 | 20.0 | 0.00 | 0.00 | 0.00 | 80 | 1007.2 |
| 20260505221055 | 73 | 176 | 13.0 | 20.0 | 0.00 | 0.00 | 0.00 | 80 | 1007.2 |
| 20260505220557 | 73 | 176 | 13.0 | 20.0 | 0.00 | 0.00 | 0.00 | 81 | 1007.3 |
| 20260505220058 | 73 | 170 | 11.3 | 19.1 | 0.00 | 0.00 | 0.00 | 81 | 1007.4 |
| 20260505215600 | 72 | 205 | 13.0 | 19.1 | 0.00 | 0.00 | 0.00 | 81 | 1007.2 |
| 20260505215055 | 72 | 149 | 13.0 | 23.5 | 0.00 | 0.00 | 0.00 | 81 | 1007.2 |
| 20260505214609 | 72 | 186 | 14.8 | 23.5 | 0.00 | 0.00 | 0.00 | 81 | 1007.4 |
| 20260505214053 | 72 | 203 | 16.5 | 23.5 | 0.00 | 0.00 | 0.00 | 81 | 1007.4 |
| 20260505213554 | 72 | 175 | 14.8 | 20.0 | 0.00 | 0.00 | 0.00 | 81 | 1007.3 |
| 20260505213052 | 72 | 167 | 13.0 | 21.7 | 0.00 | 0.00 | 0.00 | 82 | 1007.3 |
| 20260505212554 | 72 | 170 | 14.8 | 21.7 | 0.00 | 0.00 | 0.00 | 81 | 1007.3 |
| 20260505212053 | 72 | 175 | 13.9 | 21.7 | 0.00 | 0.00 | 0.00 | 81 | 1007.4 |
| 20260505211556 | 72 | 183 | 14.8 | 24.3 | 0.00 | 0.00 | 0.00 | 81 | 1007.4 |
| 20260505211053 | 72 | 196 | 18.2 | 24.3 | 0.00 | 0.00 | 0.00 | 81 | 1007.6 |
| 20260505210553 | 73 | 167 | 18.2 | 26.1 | 0.00 | 0.00 | 0.00 | 80 | 1007.5 |
| 20260505210055 | 73 | 172 | 17.4 | 26.1 | 0.00 | 0.00 | 0.00 | 80 | 1007.5 |
| 20260505205553 | 73 | 160 | 20.0 | 26.1 | 0.00 | 0.00 | 0.00 | 79 | 1007.6 |
| 20260505205054 | 73 | 190 | 18.2 | 27.8 | 0.00 | 0.00 | 0.00 | 78 | 1007.7 |
| 20260505204553 | 73 | 190 | 17.4 | 27.8 | 0.00 | 0.00 | 0.00 | 78 | 1007.6 |
| 20260505204053 | 74 | 176 | 15.6 | 20.0 | 0.00 | 0.00 | 0.00 | 77 | 1007.8 |
| 20260505203553 | 74 | 176 | 13.9 | 19.1 | 0.00 | 0.00 | 0.00 | 77 | 1007.8 |
| 20260505203056 | 74 | 170 | 13.0 | 17.4 | 0.00 | 0.00 | 0.00 | 77 | 1008.0 |
| 20260505202555 | 73 | 167 | 10.4 | 20.9 | 0.00 | 0.00 | 0.00 | 78 | 1008.0 |
| 20260505202055 | 73 | 192 | 13.9 | 23.5 | 0.00 | 0.00 | 0.00 | 78 | 1008.1 |
| 20260505201557 | 73 | 164 | 16.5 | 23.5 | 0.00 | 0.00 | 0.00 | 77 | 1008.1 |
| 20260505201056 | 74 | 186 | 16.5 | 23.5 | 0.00 | 0.00 | 0.00 | 76 | 1008.0 |
| 20260505200553 | 74 | 160 | 14.8 | 20.0 | 0.00 | 0.00 | 0.00 | 75 | 1008.1 |
| 20260505200056 | 74 | 177 | 13.9 | 22.6 | 0.00 | 0.00 | 0.00 | 75 | 1008.2 |
| 20260505195552 | 74 | 193 | 16.5 | 22.6 | 0.00 | 0.00 | 0.00 | 75 | 1008.2 |
| 20260505195052 | 74 | 200 | 17.4 | 25.2 | 0.00 | 0.00 | 0.00 | 75 | 1008.1 |
| 20260505194555 | 74 | 205 | 17.4 | 25.2 | 0.00 | 0.00 | 0.00 | 74 | 1008.2 |
| 20260505194053 | 74 | 196 | 14.8 | 22.6 | 0.00 | 0.00 | 0.00 | 74 | 1008.2 |
| 20260505193556 | 74 | 200 | 17.4 | 25.2 | 0.00 | 0.00 | 0.00 | 74 | 1008.0 |
| 20260505193053 | 74 | 204 | 17.4 | 25.2 | 0.00 | 0.00 | 0.00 | 74 | 1008.3 |
| 20260505192553 | 74 | 191 | 16.5 | 23.5 | 0.00 | 0.00 | 0.00 | 74 | 1008.3 |
| 20260505192053 | 74 | 180 | 16.5 | 22.6 | 0.00 | 0.00 | 0.00 | 74 | 1008.3 |
| 20260505191605 | 74 | 179 | 16.5 | 22.6 | 0.00 | 0.00 | 0.00 | 74 | 1008.4 |
| 20260505191058 | 74 | 167 | 13.9 | 22.6 | 0.00 | 0.00 | 0.00 | 74 | 1008.4 |
| 20260505190552 | 74 | 190 | 16.5 | 21.7 | 0.00 | 0.00 | 0.00 | 74 | 1008.3 |
| 20260505185556 | 74 | 196 | 12.2 | 26.1 | 0.00 | 0.00 | 0.00 | 74 | 1008.4 |
| 20260505185056 | 74 | 203 | 15.6 | 26.1 | 0.00 | 0.00 | 0.00 | 75 | 1008.3 |
| 20260505184558 | 74 | 189 | 19.1 | 26.1 | 0.00 | 0.00 | 0.00 | 75 | 1008.5 |
| 20260505184053 | 73 | 188 | 13.9 | 25.2 | 0.00 | 0.00 | 0.00 | 75 | 1008.5 |
| 20260505183553 | 73 | 193 | 15.6 | 25.2 | 0.00 | 0.00 | 0.00 | 75 | 1008.5 |
| 20260505183114 | 73 | 196 | 18.2 | 25.2 | 0.00 | 0.00 | 0.00 | 75 | 1008.4 |
| 20260505182553 | 73 | 188 | 17.4 | 23.5 | 0.00 | 0.00 | 0.00 | 75 | 1008.4 |
| 20260505182053 | 73 | 162 | 15.6 | 22.6 | 0.00 | 0.00 | 0.00 | 75 | 1008.3 |
| 20260505181557 | 72 | 162 | 13.0 | 22.6 | 0.00 | 0.00 | 0.00 | 77 | 1008.4 |
| 20260505181056 | 72 | 178 | 10.4 | 19.1 | 0.00 | 0.00 | 0.00 | 77 | 1008.4 |
| 20260505180554 | 72 | 169 | 13.9 | 20.0 | 0.00 | 0.00 | 0.00 | 76 | 1008.4 |
| 20260505180054 | 71 | 188 | 13.0 | 20.0 | 0.00 | 0.00 | 0.00 | 78 | 1008.6 |
| 20260505175553 | 71 | 208 | 13.0 | 20.0 | 0.00 | 0.00 | 0.00 | 78 | 1008.6 |
| 20260505175056 | 71 | 182 | 11.3 | 24.3 | 0.00 | 0.00 | 0.00 | 78 | 1008.8 |
| 20260505174554 | 71 | 160 | 13.0 | 24.3 | 0.00 | 0.00 | 0.00 | 79 | 1008.7 |
| 20260505174053 | 71 | 173 | 17.4 | 24.3 | 0.00 | 0.00 | 0.00 | 79 | 1008.7 |
| 20260505173555 | 70 | 170 | 16.5 | 22.6 | 0.00 | 0.00 | 0.00 | 79 | 1008.8 |
| 20260505173101 | 70 | 183 | 16.5 | 23.5 | 0.00 | 0.00 | 0.00 | 79 | 1008.8 |
| 20260505172557 | 70 | 192 | 17.4 | 24.3 | 0.00 | 0.00 | 0.00 | 79 | 1008.9 |
| 20260505172055 | 70 | 198 | 16.5 | 24.3 | 0.00 | 0.00 | 0.00 | 78 | 1009.0 |
| 20260505171601 | 71 | 183 | 18.2 | 24.3 | 0.00 | 0.00 | 0.00 | 77 | 1009.1 |
| 20260505171056 | 71 | 165 | 16.5 | 22.6 | 0.00 | 0.00 | 0.00 | 77 | 1009.1 |
| 20260505170554 | 71 | 184 | 14.8 | 22.6 | 0.00 | 0.00 | 0.00 | 77 | 1009.1 |
| 20260505170058 | 71 | 186 | 16.5 | 24.3 | 0.00 | 0.00 | 0.00 | 77 | 1009.2 |
| 20260505165558 | 71 | 175 | 16.5 | 24.3 | 0.00 | 0.00 | 0.00 | 76 | 1009.1 |
| 20260505165053 | 71 | 182 | 17.4 | 28.7 | 0.00 | 0.00 | 0.00 | 76 | 1009.1 |
| 20260505164553 | 71 | 169 | 16.5 | 28.7 | 0.00 | 0.00 | 0.00 | 76 | 1009.2 |
| 20260505164053 | 71 | 165 | 20.0 | 28.7 | 0.00 | 0.00 | 0.00 | 76 | 1009.3 |
| 20260505163553 | 71 | 187 | 16.5 | 23.5 | 0.00 | 0.00 | 0.00 | 76 | 1009.3 |
| 20260505163056 | 71 | 167 | 15.6 | 24.3 | 0.00 | 0.00 | 0.00 | 75 | 1009.4 |
| 20260505162552 | 71 | 224 | 15.6 | 24.3 | 0.00 | 0.00 | 0.00 | 76 | 1009.4 |
| 20260505162054 | 71 | 199 | 17.4 | 25.2 | 0.00 | 0.00 | 0.00 | 76 | 1009.4 |
| 20260505161616 | 71 | 195 | 15.6 | 25.2 | 0.00 | 0.00 | 0.00 | 75 | 1009.3 |
| 20260505161054 | 71 | 180 | 19.1 | 25.2 | 0.00 | 0.00 | 0.00 | 75 | 1009.3 |
| 20260505160556 | 70 | 183 | 14.8 | 22.6 | 0.00 | 0.00 | 0.00 | 76 | 1009.2 |
| 20260505153103 | 69 | 212 | 13.9 | 21.7 | 0.00 | 0.00 | 0.00 | 77 | 1009.5 |
| 20260505152553 | 69 | 175 | 16.5 | 21.7 | 0.00 | 0.00 | 0.00 | 77 | 1009.4 |
| 20260505152052 | 68 | 165 | 14.8 | 19.1 | 0.00 | 0.00 | 0.00 | 77 | 1009.5 |
| 20260505151614 | 68 | 194 | 11.3 | 21.7 | 0.00 | 0.00 | 0.00 | 78 | 1009.6 |
| 20260505151055 | 68 | 181 | 14.8 | 21.7 | 0.00 | 0.00 | 0.00 | 78 | 1009.6 |
| 20260505150553 | 68 | 183 | 13.0 | 18.2 | 0.00 | 0.00 | 0.00 | 78 | 1009.6 |
| 20260505140553 | 66 | 210 | 11.3 | 16.5 | 0.00 | 0.00 | 0.00 | 77 | 1009.9 |
| 20260505124559 | 64 | 208 | 13.9 | 20.0 | 0.00 | 0.00 | 0.00 | 77 | 1009.3 |
| 20260505124053 | 64 | 186 | 13.0 | 19.1 | 0.00 | 0.00 | 0.00 | 77 | 1009.4 |
| 20260505123556 | 64 | 195 | 11.3 | 17.4 | 0.00 | 0.00 | 0.00 | 77 | 1009.4 |
| 20260505123057 | 64 | 195 | 10.4 | 18.2 | 0.00 | 0.00 | 0.00 | 78 | 1009.2 |
| 20260505122554 | 63 | 174 | 13.0 | 18.2 | 0.00 | 0.00 | 0.00 | 78 | 1009.1 |
| 20260505122055 | 63 | 201 | 13.0 | 15.6 | 0.00 | 0.00 | 0.00 | 79 | 1009.1 |
| 20260505121556 | 63 | 195 | 11.3 | 17.4 | 0.00 | 0.00 | 0.00 | 79 | 1009.1 |
| 20260505121057 | 62 | 195 | 12.2 | 17.4 | 0.00 | 0.00 | 0.00 | 79 | 1009.0 |
| 20260505120557 | 62 | 183 | 13.0 | 17.4 | 0.00 | 0.00 | 0.00 | 79 | 1008.8 |
| 20260505120110 | 62 | 183 | 12.2 | 17.4 | 0.00 | 0.00 | 0.00 | 79 | 1008.7 |
| 20260505115556 | 62 | 187 | 11.3 | 17.4 | 0.00 | 0.00 | 0.00 | 80 | 1008.7 |
| 20260505115057 | 62 | 189 | 10.4 | 18.2 | 0.00 | 0.00 | 0.00 | 79 | 1008.7 |
| 20260505114600 | 62 | 179 | 13.0 | 18.2 | 0.00 | 0.00 | 0.00 | 79 | 1008.7 |
| 20260505114057 | 62 | 167 | 12.2 | 18.2 | 0.00 | 0.00 | 0.00 | 79 | 1008.6 |
| 20260505113555 | 62 | 182 | 10.4 | 15.6 | 0.00 | 0.00 | 0.00 | 80 | 1008.6 |
| 20260505113059 | 62 | 166 | 11.3 | 15.6 | 0.00 | 0.00 | 0.00 | 80 | 1008.6 |
| 20260505112555 | 62 | 172 | 9.6 | 14.8 | 0.00 | 0.00 | 0.00 | 80 | 1008.7 |
| 20260505112055 | 62 | 177 | 10.4 | 17.4 | 0.00 | 0.00 | 0.00 | 80 | 1008.6 |
| 20260505111555 | 62 | 169 | 10.4 | 17.4 | 0.00 | 0.00 | 0.00 | 80 | 1008.6 |
| 20260505111055 | 62 | 183 | 10.4 | 17.4 | 0.00 | 0.00 | 0.00 | 80 | 1008.6 |
| 20260505110555 | 61 | 184 | 7.8 | 15.6 | 0.00 | 0.00 | 0.00 | 80 | 1008.6 |
| 20260505102056 | 62 | 165 | 9.6 | 15.6 | 0.00 | 0.00 | 0.00 | 78 | 1008.3 |
| 20260505101554 | 62 | 177 | 9.6 | 15.6 | 0.00 | 0.00 | 0.00 | 77 | 1008.4 |
| 20260505101055 | 62 | 169 | 8.7 | 14.8 | 0.00 | 0.00 | 0.00 | 77 | 1008.5 |
| 20260505100555 | 62 | 159 | 8.7 | 14.8 | 0.00 | 0.00 | 0.00 | 77 | 1008.5 |
| 20260505100055 | 62 | 155 | 7.8 | 13.0 | 0.00 | 0.00 | 0.00 | 77 | 1008.4 |
| 20260505095555 | 62 | 171 | 7.8 | 13.0 | 0.00 | 0.00 | 0.00 | 77 | 1008.4 |
| 20260505095054 | 62 | 179 | 7.0 | 13.0 | 0.00 | 0.00 | 0.00 | 77 | 1008.4 |
| 20260505094553 | 62 | 171 | 8.7 | 13.0 | 0.00 | 0.00 | 0.00 | 77 | 1008.5 |
| 20260505094055 | 62 | 162 | 7.0 | 12.2 | 0.00 | 0.00 | 0.00 | 77 | 1008.5 |
| 20260505093555 | 62 | 155 | 7.8 | 12.2 | 0.00 | 0.00 | 0.00 | 76 | 1008.6 |
| 20260505093056 | 62 | 179 | 8.7 | 12.2 | 0.00 | 0.00 | 0.00 | 76 | 1008.8 |
| 20260505092556 | 62 | 169 | 7.8 | 12.2 | 0.00 | 0.00 | 0.00 | 76 | 1008.8 |
| 20260505092054 | 63 | 203 | 7.0 | 12.2 | 0.00 | 0.00 | 0.00 | 76 | 1008.7 |
| 20260505091552 | 63 | 176 | 7.0 | 13.0 | 0.00 | 0.00 | 0.00 | 75 | 1008.8 |
| 20260505091059 | 63 | 187 | 7.8 | 13.0 | 0.00 | 0.00 | 0.00 | 75 | 1008.8 |
| 20260505090555 | 63 | 162 | 8.7 | 15.6 | 0.00 | 0.00 | 0.00 | 74 | 1008.8 |
| 20260505090053 | 63 | 181 | 9.6 | 15.6 | 0.00 | 0.00 | 0.00 | 74 | 1008.8 |
| 20260505085555 | 63 | 155 | 9.6 | 14.8 | 0.00 | 0.00 | 0.00 | 74 | 1008.8 |
| 20260505085055 | 63 | 181 | 7.8 | 13.9 | 0.00 | 0.00 | 0.00 | 74 | 1008.7 |
| 20260505084554 | 64 | 174 | 7.8 | 15.6 | 0.00 | 0.00 | 0.00 | 73 | 1008.8 |
| 20260505084055 | 64 | 171 | 9.6 | 15.6 | 0.00 | 0.00 | 0.00 | 73 | 1008.9 |
| 20260505083554 | 64 | 199 | 9.6 | 14.8 | 0.00 | 0.00 | 0.00 | 73 | 1009.0 |
| 20260505083054 | 64 | 185 | 9.6 | 13.9 | 0.00 | 0.00 | 0.00 | 73 | 1009.0 |
| 20260505082554 | 64 | 170 | 7.0 | 11.3 | 0.00 | 0.00 | 0.00 | 73 | 1008.9 |
| 20260505082055 | 64 | 172 | 7.0 | 11.3 | 0.00 | 0.00 | 0.00 | 73 | 1008.9 |
| 20260505081604 | 64 | 175 | 7.0 | 10.4 | 0.00 | 0.00 | 0.00 | 73 | 1008.9 |
| 20260505081055 | 64 | 160 | 6.1 | 9.6 | 0.00 | 0.00 | 0.00 | 73 | 1008.9 |
| 20260505080555 | 64 | 189 | 4.3 | 10.4 | 0.00 | 0.00 | 0.00 | 72 | 1008.9 |
| 20260505080054 | 64 | 201 | 4.3 | 10.4 | 0.00 | 0.00 | 0.00 | 72 | 1008.7 |
| 20260505075551 | 64 | 179 | 6.1 | 11.3 | 0.00 | 0.00 | 0.00 | 72 | 1009.0 |
| 20260505075051 | 64 | 172 | 6.1 | 11.3 | 0.00 | 0.00 | 0.00 | 72 | 1009.1 |
| 20260505074558 | 64 | 201 | 6.1 | 9.6 | 0.00 | 0.00 | 0.00 | 72 | 1009.1 |
| 20260505074055 | 64 | 178 | 3.5 | 7.8 | 0.00 | 0.00 | 0.00 | 72 | 1009.4 |
| 20260505073555 | 64 | 179 | 2.6 | 8.7 | 0.00 | 0.00 | 0.00 | 71 | 1009.5 |
| 20260505073110 | 64 | 163 | 0.0 | 8.7 | 0.00 | 0.00 | 0.00 | 71 | 1009.5 |
| 20260505072554 | 64 | 172 | 0.9 | 8.7 | 0.00 | 0.00 | 0.00 | 71 | 1009.5 |
| 20260505072056 | 64 | 156 | 3.5 | 9.6 | 0.00 | 0.00 | 0.00 | 70 | 1009.6 |
| 20260505071558 | 64 | 169 | 4.3 | 9.6 | 0.00 | 0.00 | 0.00 | 70 | 1009.6 |
| 20260505071055 | 64 | 178 | 5.2 | 8.7 | 0.00 | 0.00 | 0.00 | 70 | 1009.6 |
| 20260505070557 | 64 | 141 | 5.2 | 9.6 | 0.00 | 0.00 | 0.00 | 70 | 1009.6 |
| 20260505070055 | 64 | 199 | 3.5 | 9.6 | 0.00 | 0.00 | 0.00 | 69 | 1009.7 |
| 20260505065554 | 64 | 175 | 5.2 | 9.6 | 0.00 | 0.00 | 0.00 | 69 | 1009.8 |
| 20260505065054 | 64 | 179 | 6.1 | 8.7 | 0.00 | 0.00 | 0.00 | 69 | 1009.8 |
| 20260505064552 | 64 | 177 | 4.3 | 7.8 | 0.00 | 0.00 | 0.00 | 69 | 1009.9 |
| 20260505064054 | 64 | 0 | 5.2 | 7.8 | 0.00 | 0.00 | 0.00 | 69 | 1010.0 |
| 20260505063554 | 64 | 153 | 3.5 | 7.8 | 0.00 | 0.00 | 0.00 | 69 | 1010.0 |
| 20260505063054 | 64 | 181 | 0.0 | 6.1 | 0.00 | 0.00 | 0.00 | 69 | 1010.0 |
| 20260505062552 | 64 | 174 | 0.9 | 8.7 | 0.00 | 0.00 | 0.00 | 69 | 1009.9 |
| 20260505062053 | 64 | 0 | 2.6 | 8.7 | 0.00 | 0.00 | 0.00 | 68 | 1009.9 |
| 20260505061556 | 64 | 160 | 3.5 | 7.8 | 0.00 | 0.00 | 0.00 | 68 | 1010.1 |
| 20260505061053 | 64 | 176 | 1.7 | 7.8 | 0.00 | 0.00 | 0.00 | 68 | 1009.9 |
| 20260505060554 | 65 | 0 | 0.9 | 7.8 | 0.00 | 0.00 | 0.00 | 67 | 1010.1 |
| 20260505060056 | 65 | 171 | 2.6 | 7.8 | 0.00 | 0.00 | 0.00 | 67 | 1010.1 |
| 20260505055553 | 65 | 186 | 1.7 | 7.8 | 0.00 | 0.00 | 0.00 | 67 | 1010.0 |
| 20260505055054 | 65 | 165 | 3.5 | 7.8 | 0.00 | 0.00 | 0.00 | 66 | 1010.0 |
| 20260505054622 | 65 | 172 | 2.6 | 7.8 | 0.00 | 0.00 | 0.00 | 66 | 1010.2 |
| 20260505054053 | 65 | 167 | 0.9 | 7.8 | 0.00 | 0.00 | 0.00 | 66 | 1010.1 |
| 20260505053553 | 65 | 190 | 0.0 | 7.8 | 0.00 | 0.00 | 0.00 | 65 | 1010.1 |
| 20260505053108 | 66 | 0 | 3.5 | 8.7 | 0.00 | 0.00 | 0.00 | 65 | 1010.1 |
| 20260505052556 | 66 | 198 | 4.3 | 8.7 | 0.00 | 0.00 | 0.00 | 64 | 1010.3 |
| 20260505052052 | 66 | 188 | 3.5 | 8.7 | 0.00 | 0.00 | 0.00 | 64 | 1010.1 |
| 20260505051557 | 66 | 162 | 4.3 | 8.7 | 0.00 | 0.00 | 0.00 | 64 | 1010.0 |
| 20260505051054 | 66 | 165 | 1.7 | 9.6 | 0.00 | 0.00 | 0.00 | 64 | 1010.1 |
| 20260505050552 | 66 | 165 | 3.5 | 10.4 | 0.00 | 0.00 | 0.00 | 63 | 1010.1 |
| 20260505041600 | 67 | 0 | 4.3 | 10.4 | 0.00 | 0.00 | 0.00 | 60 | 1010.3 |
| 20260505041052 | 67 | 0 | 2.6 | 9.6 | 0.00 | 0.00 | 0.00 | 60 | 1010.3 |
| 20260505040553 | 67 | 182 | 0.9 | 9.6 | 0.00 | 0.00 | 0.00 | 60 | 1010.5 |
| 20260505040056 | 67 | 192 | 2.6 | 9.6 | 0.00 | 0.00 | 0.00 | 60 | 1010.6 |
| 20260505035553 | 67 | 178 | 3.5 | 10.4 | 0.00 | 0.00 | 0.00 | 59 | 1010.4 |
| 20260505035052 | 68 | 198 | 6.1 | 11.3 | 0.00 | 0.00 | 0.00 | 59 | 1010.4 |
| 20260505034551 | 68 | 176 | 6.1 | 11.3 | 0.00 | 0.00 | 0.00 | 59 | 1010.4 |
| 20260505034055 | 68 | 181 | 6.1 | 11.3 | 0.00 | 0.00 | 0.00 | 59 | 1010.0 |
| 20260505033552 | 68 | 149 | 3.5 | 11.3 | 0.00 | 0.00 | 0.00 | 59 | 1010.2 |
| 20260505033057 | 68 | 177 | 4.3 | 10.4 | 0.00 | 0.00 | 0.00 | 59 | 1010.2 |
| 20260505032552 | 68 | 0 | 4.3 | 10.4 | 0.00 | 0.00 | 0.00 | 59 | 1010.1 |
| 20260505032051 | 68 | 198 | 3.5 | 8.7 | 0.00 | 0.00 | 0.00 | 59 | 1009.9 |
| 20260505031608 | 68 | 0 | 1.7 | 8.7 | 0.00 | 0.00 | 0.00 | 59 | 1010.0 |
| 20260505031052 | 68 | 185 | 0.0 | 7.8 | 0.00 | 0.00 | 0.00 | 59 | 1010.3 |
| 20260505030552 | 68 | 172 | 1.7 | 7.8 | 0.00 | 0.00 | 0.00 | 59 | 1010.0 |
| 20260505030057 | 68 | 0 | 1.7 | 8.7 | 0.00 | 0.00 | 0.00 | 59 | 1010.0 |
| 20260505025553 | 68 | 0 | 1.7 | 8.7 | 0.00 | 0.00 | 0.00 | 58 | 1010.0 |
| 20260505025054 | 68 | 181 | 0.9 | 8.7 | 0.00 | 0.00 | 0.00 | 58 | 1010.0 |
| 20260505024559 | 68 | 0 | 0.9 | 7.0 | 0.00 | 0.00 | 0.00 | 58 | 1010.0 |
| 20260505024054 | 68 | 0 | 0.0 | 4.3 | 0.00 | 0.00 | 0.00 | 57 | 1009.9 |
| 20260505023554 | 68 | 162 | 0.0 | 0.0 | 0.00 | 0.00 | 0.00 | 57 | 1009.9 |
| 20260505023121 | 68 | 0 | 0.0 | 6.1 | 0.00 | 0.00 | 0.00 | 56 | 1010.0 |
| 20260505022552 | 68 | 0 | 0.0 | 6.1 | 0.00 | 0.00 | 0.00 | 55 | 1010.0 |
| 20260505022052 | 69 | 183 | 1.7 | 6.1 | 0.00 | 0.00 | 0.00 | 54 | 1009.9 |
| 20260505021555 | 69 | 0 | 0.0 | 7.0 | 0.00 | 0.00 | 0.00 | 54 | 1009.7 |
| 20260505021053 | 69 | 0 | 0.9 | 7.8 | 0.00 | 0.00 | 0.00 | 54 | 1009.5 |
| 20260505020555 | 70 | 174 | 1.7 | 8.7 | 0.00 | 0.00 | 0.00 | 53 | 1009.6 |
| 20260505020054 | 70 | 0 | 1.7 | 8.7 | 0.00 | 0.00 | 0.00 | 52 | 1009.5 |